[[{"header":{"parameterUnit":"m.s-1","parameterCategory":1,"la1":30.2991,"la2":30.254,"lo1":-89.0895,"lo2":-89.0444,"dy":0.0017,"dx":0.0017,"nx":28,"ny":28,"refTime":"2024-04-08T03:00:00:Z","depth":0,"parameterNumber":2,"parameterNumberName":"U-component_of_WINDS"},"data":[0,0,0,0,0,0,0,0,0,0,0,0,0,0,0,0,0,0,0,0,0,0,0,0,0,0,0,0,0,0,0,0,0,0,0,0,0,0,0,0,0,0,0,0,0,0,0,0,0,0,0,0,0,0,0,0,0,0,-6.3682,-6.3682,0,-6.3685,-6.3685,-6.3685,-6.3552,-6.3548,-6.3545,-6.3542,-6.3542,-6.3545,-6.3548,0,0,0,0,0,0,0,0,0,0,0,0,0,-6.3562,-6.3565,-6.3682,-6.3682,-6.3682,-6.3685,-6.3685,-6.3685,-6.3553,-6.3548,-6.3544,-6.354,-6.3541,-6.3545,-6.3549,0,0,0,0,0,0,0,0,0,0,0,0,0,-6.3594,-6.3566,-6.3682,-6.3617,-6.3611,-6.3685,-6.3685,-6.3685,-6.3553,-6.3548,-6.3543,-6.3538,-6.354,-6.3544,-6.3549,-6.3685,0,0,-6.3564,-6.3566,0,0,0,0,0,0,0,0,-6.3593,-6.3599,-6.3626,-6.3621,-6.3615,-6.3613,-6.3642,-6.3685,-6.3555,-6.3575,-6.3542,-6.3535,-6.357,-6.3572,-6.3584,-6.3685,-6.3685,-6.3565,-6.3568,-6.357,-6.3571,0,0,0,0,0,0,0,-6.359,-6.3598,-6.3683,-6.3627,-6.362,-6.3587,-6.3586,-6.365,-6.3602,-6.3573,-6.3563,-6.3566,-6.3565,-6.3579,-6.3583,-6.3685,-6.3565,-6.3569,-6.3572,-6.3574,-6.3897,-6.3902,0,0,0,0,0,0,-6.3597,-6.3597,-6.3683,-6.3683,-6.3591,-6.3593,-6.3592,-6.3619,-6.3601,-6.3593,-6.357,-6.3559,-6.3573,-6.3577,-6.3582,-6.3738,-6.357,-6.3574,-6.3577,-6.3891,-6.3898,-6.3904,0,0,0,0,0,0,-6.3595,-6.3606,-6.3683,-6.3637,-6.3645,-6.3601,-6.3632,-6.3622,-6.3635,-6.3599,-6.3589,-6.3593,-6.3569,-6.3575,-6.366,-6.3736,-6.3577,-6.3581,-6.3885,-6.3893,-6.3901,-6.4053,0,0,0,0,0,0,-6.3592,-6.3606,-6.3658,-6.364,-6.3648,-6.3762,-6.3637,-6.3625,-6.3644,-6.363,-6.3618,-6.361,-6.3566,-6.3654,-6.3665,-6.374,-6.3585,-6.3878,-6.3889,-6.3899,-6.4041,-6.4065,-6.4086,0,0,0,0,0,-6.3589,-6.37,-6.3661,-6.3672,-6.3711,-6.3766,-6.3771,-6.3718,-6.3651,-6.3701,-6.3678,-6.3611,-6.3727,-6.3664,-6.3675,-6.3753,-6.3872,-6.3885,-6.3898,-6.403,-6.406,-6.4086,0,0,0,0,0,0,-6.3726,-6.3696,-6.3653,-6.3762,-6.3768,-6.3744,-6.3806,-6.3751,-6.3776,-6.3761,-6.3694,-6.3693,-6.3788,-6.3779,-6.3709,-6.3883,-6.3788,-6.3804,-6.3885,-6.3913,-6.3935,-6.3934,-6.3589,0,0,0,0,0,-6.377,-6.3818,-6.3789,-6.3888,-6.3893,-6.385,-6.3872,-6.3831,-6.3834,-6.3836,-6.3818,-6.3824,-6.3861,-6.3887,-6.392,-6.404,-6.4035,-6.41,-6.4123,-6.4142,-6.4155,-6.4216,-6.4244,-6.3946,-6.3946,-6.3946,0,0,-6.3859,-6.3849,-6.3883,-6.3915,-6.3915,-6.3966,-6.3853,-6.3911,-6.3947,-6.3844,-6.3923,-6.3911,-6.3913,-6.4016,-6.406,-6.4011,-6.4237,-6.4158,-6.4173,-6.4176,-6.4232,-6.4261,-6.4286,-6.3954,-6.3953,-6.3952,0,0,-6.4047,-6.4046,-6.4127,-6.413,-6.4131,-6.4102,-6.4122,-6.4107,-6.4096,-6.4174,-6.4098,-6.4141,-6.4207,-6.4211,-6.4221,-6.4414,-6.4352,-6.4427,-6.4545,-6.4606,-6.463,-6.465,-6.4716,-6.4741,-6.4441,-6.4442,-6.4442,0,-6.4157,-6.4231,-6.4175,-6.4239,-6.4255,-6.4166,-6.4247,-6.4253,-6.4265,-6.4278,-6.4224,-6.4306,-6.4301,-6.4402,-6.445,-6.4463,-6.4482,-6.4426,-6.4631,-6.4651,-6.4669,-6.4731,-6.4757,-6.445,-6.4449,-6.4448,-6.4448,0,-6.4365,-6.4418,-6.4484,-6.4499,-6.4523,-6.4595,-6.455,-6.4581,-6.4539,-6.4516,-6.4597,-6.4588,-6.4617,-6.4639,-6.4598,-6.4736,-6.4705,-6.4643,-6.4544,-6.4707,-6.4765,-6.4788,-6.4463,-6.446,-6.4457,-6.4455,0,0,-6.4636,-6.4622,-6.4646,-6.4652,-6.4649,-6.4688,-6.4757,-6.4786,-6.4813,-6.4826,-6.488,-6.494,-6.4882,-6.4895,-6.4854,-6.4909,-6.5059,-6.4839,-6.4838,-6.4878,-6.5208,-6.5253,-6.5282,-6.502,-6.5025,-6.5028,-6.5207,0,-6.4816,-6.4932,-6.4885,-6.5005,-6.5052,-6.497,-6.503,-6.5035,-6.5016,-6.5052,-6.5031,-6.5073,-6.4995,-6.5002,-6.5052,-6.5031,-6.5124,-6.5017,-6.5068,-6.5071,-6.5067,-6.5312,-6.5359,-6.5528,-6.523,-6.5233,-6.5236,0,-6.504,-6.5063,-6.5188,-6.5177,-6.5195,-6.525,-6.5273,-6.531,-6.5314,-6.5296,-6.5312,-6.5259,-6.5325,-6.5232,-6.5321,-6.5249,-6.5268,-6.5261,-6.5266,-6.5266,-6.5161,-6.5315,-6.5581,-6.5605,-6.5271,-6.5269,-6.5266,0,-6.5222,-6.5284,-6.5366,-6.5374,-6.5364,-6.5404,-6.5402,-6.5401,-6.5422,-6.5442,-6.5455,-6.5484,-6.5498,-6.5522,-6.5478,-6.5414,-6.5573,-6.5476,-6.5559,-6.556,-6.5592,-6.559,-6.5862,-6.5611,-6.5611,-6.561,-6.561,0,-6.5425,-6.5504,-6.5448,-6.5498,-6.5584,-6.5531,-6.5617,-6.5606,-6.5606,-6.5652,-6.5584,-6.5629,-6.5571,-6.561,-6.5577,-6.5655,-6.5663,-6.565,-6.5639,-6.5654,-6.5655,-6.5662,-6.5648,-6.5617,-6.5616,-6.5614,-6.5613,0,-6.564,-6.5606,-6.569,-6.5675,-6.5673,-6.5737,-6.5723,-6.5769,-6.5747,-6.5806,-6.5817,-6.5781,-6.5824,-6.5785,-6.5825,-6.5803,-6.5906,-6.5881,-6.5905,-6.5896,-6.598,-6.5972,-6.6262,-6.6297,-6.6028,-6.6031,-6.6033,0,-6.577,-6.5829,-6.5821,-6.5847,-6.585,-6.5894,-6.5915,-6.5865,-6.589,-6.59,-6.5944,-6.5982,-6.6008,-6.6081,-6.6058,-6.6089,-6.6061,-6.6162,-6.6065,-6.6078,-6.6059,-6.6055,-6.6059,-6.618,-6.6183,-6.6185,-6.6188,0,-6.6004,-6.5984,-6.6018,-6.6047,-6.6075,-6.6095,-6.6109,-6.6135,-6.6084,-6.6116,-6.6159,-6.618,-6.6223,-6.626,-6.6284,-6.6281,-6.6226,-6.6219,-6.6239,-6.6252,-6.6262,-6.6255,-6.5954,-6.6211,-6.6209,-6.6207,-6.6206,-6.6205,-6.6178,-6.6226,-6.6228,-6.6268,-6.6274,-6.629,-6.6332,-6.6316,-6.6352,-6.6382,-6.6352,-6.6404,-6.6407,-6.6434,-6.6438,-6.6477,-6.6435,-6.6465,-6.6472,-6.6479,-6.649,-6.626,-6.6482,-6.6481,-6.6481,-6.648,-6.648,0,-6.6405,-6.6403,-6.6441,-6.6464,-6.6496,-6.6444,-6.6458,-6.6487,-6.6534,-6.6543,-6.6571,-6.6621,-6.6658,-6.6639,-6.6671,-6.6706,-6.6682,-6.6716,-6.6711,-6.671,-6.6527,-6.6505,-6.6735,-6.6735,-6.6735,-6.6735,-6.6735,-6.6735,-6.6526,-6.6605,-6.6587,-6.6668,-6.6665,-6.6716,-6.6729,-6.6743,-6.6749,-6.6808,-6.6838,-6.6827,-6.6824,-6.6855,-6.6886,-6.688,-6.6893,-6.6936,-6.6921,-6.6749,-6.6723,-6.6699,-6.6678,-6.694,-6.6941,-6.71,-6.7101,-6.7102]},{"header":{"parameterUnit":"m.s-1","parameterCategory":1,"la1":30.2991,"la2":30.254,"lo1":-89.0895,"lo2":-89.0444,"dy":0.0017,"dx":0.0017,"nx":28,"ny":28,"refTime":"2024-04-08T03:00:00:Z","depth":0,"parameterNumber":3,"parameterNumberName":"V-component_of_WINDS"},"data":[0,0,0,0,0,0,0,0,0,0,0,0,0,0,0,0,0,0,0,0,0,0,0,0,0,0,0,0,0,0,0,0,0,0,0,0,0,0,0,0,0,0,0,0,0,0,0,0,0,0,0,0,0,0,0,0,0,0,1.7883,1.7883,0,1.7915,1.7915,1.7915,1.7934,1.7934,1.7934,1.7934,1.7964,1.7965,1.7965,0,0,0,0,0,0,0,0,0,0,0,0,0,1.7838,1.7839,1.7883,1.7883,1.7884,1.7914,1.7915,1.7915,1.7934,1.7934,1.7934,1.7934,1.7964,1.7964,1.7965,0,0,0,0,0,0,0,0,0,0,0,0,0,1.7862,1.7839,1.7883,1.7897,1.7898,1.7914,1.7915,1.7915,1.7933,1.7934,1.7934,1.7934,1.7963,1.7964,1.7965,1.797,0,0,1.7969,1.7969,0,0,0,0,0,0,0,0,1.7861,1.7864,1.7894,1.7896,1.7897,1.792,1.791,1.7934,1.7933,1.792,1.7934,1.7934,1.7949,1.7951,1.7957,1.7971,1.7973,1.7969,1.797,1.797,1.797,0,0,0,0,0,0,0,1.7859,1.7863,1.7895,1.7895,1.7897,1.7901,1.7905,1.7915,1.7933,1.7921,1.7923,1.7926,1.795,1.7956,1.7958,1.7973,1.7969,1.797,1.797,1.7971,1.7995,1.7995,0,0,0,0,0,0,1.7855,1.7861,1.7894,1.7896,1.7879,1.7902,1.7906,1.7913,1.7933,1.7937,1.7926,1.7927,1.7954,1.7956,1.7959,1.7967,1.797,1.7971,1.7972,1.7995,1.7995,1.7995,0,0,0,0,0,0,1.7854,1.7858,1.7893,1.7879,1.7884,1.7902,1.791,1.7913,1.7919,1.7937,1.794,1.7929,1.7954,1.7957,1.7968,1.7968,1.7971,1.7972,1.7995,1.7995,1.7995,1.7982,0,0,0,0,0,0,1.7853,1.7858,1.7859,1.7879,1.7885,1.7901,1.791,1.7914,1.7921,1.7923,1.794,1.7943,1.7954,1.7966,1.7969,1.797,1.7973,1.7995,1.7995,1.7995,1.7982,1.7981,1.7981,0,0,0,0,0,1.7851,1.7853,1.7859,1.7863,1.7887,1.7901,1.7904,1.7918,1.7921,1.7923,1.7935,1.7943,1.7968,1.7967,1.797,1.7971,1.7995,1.7995,1.7995,1.7983,1.7981,1.7981,0,0,0,0,0,0,1.7832,1.7856,1.7863,1.7872,1.7884,1.7904,1.7907,1.7916,1.7927,1.7928,1.7943,1.7947,1.7956,1.7965,1.7963,1.7978,1.7982,1.7983,1.7972,1.7971,1.797,1.7968,1.7974,0,0,0,0,0,1.7829,1.7839,1.7859,1.7865,1.7871,1.7888,1.7895,1.7904,1.7918,1.7923,1.7935,1.7948,1.7959,1.7965,1.7976,1.7984,1.7989,1.7987,1.7986,1.7985,1.7985,1.7992,1.7991,1.7995,1.7995,1.7995,0,0,1.7822,1.7837,1.7841,1.7861,1.7872,1.7882,1.7892,1.7902,1.7909,1.7924,1.7935,1.7945,1.796,1.797,1.7974,1.7977,1.7986,1.7985,1.7984,1.7985,1.7992,1.7991,1.7991,1.7995,1.7995,1.7995,0,0,1.7815,1.7827,1.7833,1.7845,1.7862,1.7874,1.7876,1.7895,1.7903,1.7914,1.7926,1.7936,1.7953,1.7964,1.7972,1.7972,1.798,1.7975,1.7971,1.7977,1.7977,1.7976,1.7977,1.7977,1.7976,1.7976,1.7976,0,1.7804,1.782,1.7836,1.7845,1.7854,1.787,1.7877,1.7887,1.7907,1.7913,1.7916,1.794,1.7951,1.7965,1.7965,1.7971,1.7974,1.7973,1.7975,1.7975,1.7976,1.7977,1.7977,1.7975,1.7975,1.7975,1.7975,0,1.7806,1.7817,1.7821,1.7841,1.785,1.7859,1.7876,1.7884,1.7893,1.7905,1.7917,1.7932,1.7947,1.7951,1.7959,1.7966,1.7967,1.7973,1.7977,1.7974,1.7976,1.7976,1.7974,1.7974,1.7975,1.7975,0,0,1.7785,1.7817,1.7818,1.7828,1.785,1.7858,1.7868,1.7884,1.7891,1.7904,1.7914,1.793,1.7936,1.7945,1.7955,1.796,1.7961,1.7966,1.7966,1.7965,1.7971,1.7967,1.7967,1.7967,1.7967,1.7967,1.797,0,1.7782,1.7801,1.7817,1.783,1.7841,1.7857,1.7866,1.7881,1.7892,1.7903,1.7916,1.7928,1.7935,1.794,1.7947,1.796,1.7963,1.796,1.7976,1.7976,1.7971,1.7968,1.7963,1.7964,1.7971,1.7971,1.7971,0,1.778,1.7795,1.7809,1.7832,1.7837,1.7845,1.7862,1.7872,1.789,1.7898,1.7909,1.7921,1.7932,1.7937,1.7953,1.7951,1.7959,1.7967,1.7967,1.7969,1.7973,1.797,1.7965,1.7966,1.7972,1.7972,1.7971,0,1.7764,1.7788,1.78,1.7809,1.7835,1.784,1.7852,1.7869,1.7878,1.7893,1.79,1.7915,1.7924,1.7936,1.7951,1.7953,1.7967,1.7972,1.7975,1.7974,1.7976,1.7976,1.7973,1.7981,1.7981,1.7981,1.7981,0,1.7759,1.7767,1.7794,1.7802,1.7812,1.7831,1.7841,1.7853,1.7869,1.788,1.7895,1.7904,1.7924,1.7936,1.7948,1.7961,1.7965,1.7972,1.7975,1.7971,1.797,1.7976,1.7976,1.7981,1.7981,1.7981,1.7981,0,1.7743,1.7761,1.7776,1.7801,1.7808,1.7814,1.7836,1.7844,1.7858,1.7871,1.7875,1.7896,1.7911,1.7928,1.7949,1.7957,1.7969,1.7974,1.7964,1.7966,1.7967,1.7967,1.7968,1.797,1.7976,1.7976,1.7976,0,1.7738,1.7745,1.7772,1.7781,1.7792,1.7805,1.7816,1.7835,1.7845,1.7867,1.7873,1.789,1.7904,1.7928,1.7945,1.7961,1.7966,1.7965,1.7968,1.7964,1.7967,1.7966,1.7968,1.7964,1.7964,1.7964,1.7964,0,1.7727,1.7737,1.7752,1.777,1.7783,1.7798,1.7814,1.782,1.7843,1.7853,1.787,1.7881,1.7904,1.792,1.7939,1.7951,1.7961,1.7963,1.7965,1.796,1.7954,1.7958,1.7962,1.7963,1.7963,1.7963,1.7963,1.7963,1.7717,1.7725,1.7746,1.7763,1.7777,1.7792,1.7802,1.7818,1.7832,1.7853,1.7863,1.788,1.7899,1.7926,1.7937,1.7951,1.7954,1.7956,1.7956,1.7957,1.7956,1.7953,1.7954,1.7954,1.7954,1.7954,1.7954,0,1.7708,1.7723,1.7738,1.7761,1.7775,1.7785,1.7804,1.7814,1.7829,1.7846,1.7861,1.7881,1.7898,1.7917,1.7936,1.7943,1.7948,1.7947,1.7947,1.795,1.7952,1.7949,1.7943,1.7943,1.7943,1.7943,1.7943,1.7943,1.7705,1.772,1.7733,1.7755,1.777,1.7787,1.7797,1.7812,1.7826,1.7848,1.7863,1.7876,1.7895,1.7915,1.7931,1.7936,1.7943,1.794,1.7947,1.7948,1.7949,1.795,1.7948,1.7941,1.7941,1.7944,1.7944,1.7944]}]]